^^
Station Historical Data
Daily Summary for April 7, 2017 Units:  English    Metric   Both
« Previous Day
Next Day »
Daily Weekly Monthly Yearly Custom
  High: Low: Average:
Temperature: 47.5 °F 38.5 °F 42.2 °F
Dew Point: 40.0 °F 27.5 °F 33.5 °F
Humidity: 84 % 59 % 71 %
Wind Speed: 17.5 mph 0.5 mph 8.9 mph
Wind Gust: 27.6 mph - -
Wind:- - West
Pressure: 29.79 in 29.32 in -
Precipitation: 0.03 in    
Historical Graphs
 
 
Tabular Data for April 7, 2017
Time Temperature Dew Point Pressure Wind Wind Speed Wind Gust Humidity Rainfall Rate (Hourly) solar Conditions
00:02 47.5 °F 40.0 °F 29.33 in WSW 7.4 mph 10.4 mph 75 % 0.00 in 0.0 W/m2 RA
00:07 47.3 °F 39.8 °F 29.33 in WSW 7.5 mph 16.1 mph 75 % 0.00 in 0.0 W/m2 RA
00:09 47.3 °F 39.4 °F 29.33 in WSW 10.4 mph 13.8 mph 74 % 0.00 in 0.0 W/m2 RA
00:14 47.1 °F 39.2 °F 29.33 in WSW 7.7 mph 12.7 mph 74 % 0.00 in 0.0 W/m2 CLR
00:19 46.9 °F 38.7 °F 29.33 in WSW 11.0 mph 17.3 mph 73 % 0.00 in 0.0 W/m2 CLR
00:24 46.6 °F 38.4 °F 29.34 in West 8.7 mph 16.0 mph 73 % 0.00 in 0.0 W/m2 CLR
00:29 46.3 °F 38.1 °F 29.34 in WSW 7.7 mph 13.8 mph 73 % 0.00 in 0.0 W/m2 CLR
00:34 46.2 °F 38.0 °F 29.34 in WSW 8.5 mph 13.8 mph 73 % 0.00 in 0.0 W/m2 CLR
00:39 46.1 °F 37.9 °F 29.34 in West 9.2 mph 17.0 mph 73 % 0.00 in 0.0 W/m2 CLR
00:44 45.9 °F 37.7 °F 29.34 in West 8.2 mph 9.2 mph 73 % 0.00 in 0.0 W/m2 CLR
00:49 45.7 °F 37.9 °F 29.34 in SW 4.1 mph 11.5 mph 74 % 0.00 in 0.0 W/m2 CLR
00:54 45.5 °F 37.7 °F 29.34 in SW 5.0 mph 11.5 mph 74 % 0.00 in 0.0 W/m2 CLR
00:59 45.3 °F 37.5 °F 29.34 in WSW 5.5 mph 11.0 mph 74 % 0.00 in 0.0 W/m2 CLR
01:04 45.2 °F 37.1 °F 29.34 in SW 7.5 mph 18.4 mph 73 % 0.00 in 0.0 W/m2 CLR
01:09 45.2 °F 37.1 °F 29.34 in SW 6.3 mph 11.5 mph 73 % 0.00 in 0.0 W/m2 CLR
01:14 45.0 °F 36.9 °F 29.34 in WSW 7.0 mph 16.1 mph 73 % 0.00 in 0.0 W/m2 CLR
01:19 45.0 °F 36.9 °F 29.34 in SSW 2.8 mph 12.7 mph 73 % 0.00 in 0.0 W/m2 CLR
01:24 44.9 °F 36.8 °F 29.34 in SW 5.8 mph 8.1 mph 73 % 0.00 in 0.0 W/m2 CLR
01:29 44.9 °F 36.8 °F 29.34 in SW 5.9 mph 16.1 mph 73 % 0.00 in 0.0 W/m2 CLR
01:34 44.8 °F 36.7 °F 29.34 in SW 4.1 mph 6.9 mph 73 % 0.00 in 0.0 W/m2 CLR
01:39 44.7 °F 36.6 °F 29.34 in SW 4.4 mph 12.7 mph 73 % 0.00 in 0.0 W/m2 CLR
01:44 44.6 °F 36.5 °F 29.34 in WSW 4.5 mph 12.7 mph 73 % 0.00 in 0.0 W/m2 CLR
01:49 44.4 °F 36.6 °F 29.34 in West 2.4 mph 8.1 mph 74 % 0.00 in 0.0 W/m2 CLR
01:54 44.3 °F 36.5 °F 29.34 in SW 3.3 mph 6.9 mph 74 % 0.00 in 0.0 W/m2 CLR
01:59 44.0 °F 36.2 °F 29.34 in WSW 1.1 mph 4.0 mph 74 % 0.00 in 0.0 W/m2 CLR
02:04 43.9 °F 36.5 °F 29.34 in WSW 2.3 mph 5.8 mph 75 % 0.00 in 0.0 W/m2 CLR
02:09 43.8 °F 36.7 °F 29.34 in WSW 1.0 mph 3.5 mph 76 % 0.00 in 0.0 W/m2 CLR
02:14 43.8 °F 36.7 °F 29.33 in WSW 2.5 mph 7.0 mph 76 % 0.00 in 0.0 W/m2 CLR
02:19 43.8 °F 37.1 °F 29.33 in SW 1.8 mph 5.8 mph 77 % 0.00 in 0.0 W/m2 CLR
02:24 43.9 °F 37.2 °F 29.33 in WSW 3.7 mph 6.9 mph 77 % 0.00 in 0.0 W/m2 CLR
02:29 44.0 °F 36.9 °F 29.33 in SW 8.2 mph 13.8 mph 76 % 0.00 in 0.0 W/m2 CLR
02:34 44.1 °F 36.7 °F 29.33 in West 4.5 mph 9.2 mph 75 % 0.00 in 0.0 W/m2 CLR
02:39 44.2 °F 36.8 °F 29.33 in WSW 5.5 mph 15.0 mph 75 % 0.00 in 0.0 W/m2 CLR
02:44 44.2 °F 36.8 °F 29.33 in WSW 0.5 mph 11.5 mph 75 % 0.00 in 0.0 W/m2 CLR
02:49 44.2 °F 37.1 °F 29.33 in WSW 4.9 mph 12.0 mph 76 % 0.00 in 0.0 W/m2 CLR
02:54 44.1 °F 37.0 °F 29.33 in SW 2.8 mph 6.9 mph 76 % 0.00 in 0.0 W/m2 CLR
02:59 44.1 °F 36.7 °F 29.33 in WSW 5.7 mph 17.3 mph 75 % 0.00 in 0.0 W/m2 CLR
03:04 44.1 °F 36.7 °F 29.33 in West 5.6 mph 12.7 mph 75 % 0.00 in 0.0 W/m2 CLR
03:09 44.1 °F 36.7 °F 29.33 in West 5.4 mph 16.1 mph 75 % 0.00 in 0.0 W/m2 CLR
03:14 44.1 °F 36.3 °F 29.33 in West 6.6 mph 11.5 mph 74 % 0.00 in 0.0 W/m2 CLR
03:19 44.1 °F 36.3 °F 29.33 in SW 7.3 mph 15.0 mph 74 % 0.00 in 0.0 W/m2 CLR
03:24 44.1 °F 36.3 °F 29.33 in West 9.5 mph 14.0 mph 74 % 0.00 in 0.0 W/m2 CLR
03:29 44.1 °F 36.0 °F 29.33 in SW 5.8 mph 12.7 mph 73 % 0.00 in 0.0 W/m2 CLR
03:34 44.1 °F 36.0 °F 29.33 in WSW 9.1 mph 9.1 mph 73 % 0.00 in 0.0 W/m2 CLR
03:39 44.0 °F 35.6 °F 29.33 in West 6.1 mph 11.5 mph 72 % 0.00 in 0.0 W/m2 CLR
03:44 44.0 °F 35.6 °F 29.33 in West 7.3 mph 10.0 mph 72 % 0.00 in 0.0 W/m2 CLR
03:50 43.9 °F 35.5 °F 29.33 in West 6.1 mph 20.0 mph 72 % 0.00 in 0.0 W/m2 CLR
03:55 43.9 °F 35.5 °F 29.33 in WSW 9.9 mph 16.1 mph 72 % 0.00 in 0.0 W/m2 CLR
04:00 43.8 °F 35.4 °F 29.33 in SW 3.9 mph 12.7 mph 72 % 0.00 in 0.0 W/m2 CLR
04:05 43.8 °F 35.0 °F 29.33 in WSW 6.0 mph 11.5 mph 71 % 0.00 in 0.0 W/m2 CLR
04:10 43.7 °F 35.3 °F 29.33 in WSW 3.2 mph 11.5 mph 72 % 0.00 in 0.0 W/m2 CLR
04:15 43.6 °F 35.2 °F 29.33 in SW 2.8 mph 5.0 mph 72 % 0.00 in 0.0 W/m2 CLR
04:20 43.5 °F 35.4 °F 29.33 in SW 4.3 mph 10.0 mph 73 % 0.00 in 0.0 W/m2 CLR
04:25 43.4 °F 35.0 °F 29.33 in West 7.3 mph 11.5 mph 72 % 0.00 in 0.0 W/m2 CLR
04:30 43.4 °F 35.0 °F 29.33 in WSW 4.2 mph 19.6 mph 72 % 0.00 in 0.0 W/m2 CLR
04:35 43.3 °F 34.9 °F 29.32 in WSW 4.8 mph 15.0 mph 72 % 0.00 in 0.0 W/m2 CLR
04:40 43.2 °F 34.4 °F 29.33 in WSW 4.9 mph 16.1 mph 71 % 0.00 in 0.0 W/m2 CLR
04:45 43.2 °F 34.4 °F 29.33 in SW 8.9 mph 14.0 mph 71 % 0.00 in 0.0 W/m2 CLR
04:50 43.2 °F 34.4 °F 29.33 in West 5.7 mph 12.7 mph 71 % 0.00 in 0.0 W/m2 CLR
04:55 43.1 °F 34.3 °F 29.33 in West 9.1 mph 20.7 mph 71 % 0.00 in 0.0 W/m2 CLR
05:00 43.1 °F 34.7 °F 29.33 in SSW 7.9 mph 11.5 mph 72 % 0.00 in 0.0 W/m2 CLR
05:05 43.0 °F 34.6 °F 29.33 in WSW 8.1 mph 8.1 mph 72 % 0.00 in 0.0 W/m2 CLR
05:10 42.9 °F 34.5 °F 29.33 in WSW 7.7 mph 17.3 mph 72 % 0.00 in 0.0 W/m2 CLR
05:15 42.9 °F 34.5 °F 29.33 in WSW 10.5 mph 17.3 mph 72 % 0.00 in 0.0 W/m2 CLR
05:21 42.9 °F 34.5 °F 29.33 in WSW 4.5 mph 11.5 mph 72 % 0.00 in 0.0 W/m2 CLR
05:26 42.8 °F 34.4 °F 29.33 in WSW 3.6 mph 13.8 mph 72 % 0.00 in 0.0 W/m2 CLR
05:31 42.7 °F 34.3 °F 29.33 in West 6.6 mph 11.5 mph 72 % 0.00 in 0.0 W/m2 CLR
05:36 42.7 °F 34.3 °F 29.33 in WSW 3.6 mph 6.9 mph 72 % 0.00 in 0.0 W/m2 CLR
05:41 42.7 °F 34.3 °F 29.33 in WSW 7.1 mph 9.2 mph 72 % 0.00 in 0.0 W/m2 CLR
05:46 42.6 °F 34.2 °F 29.33 in West 4.6 mph 12.7 mph 72 % 0.00 in 0.0 W/m2 CLR
05:51 42.5 °F 34.5 °F 29.33 in WSW 3.7 mph 18.4 mph 73 % 0.00 in 0.0 W/m2 CLR
05:56 42.3 °F 34.3 °F 29.33 in SW 8.9 mph 12.7 mph 73 % 0.00 in 0.0 W/m2 CLR
06:01 42.2 °F 34.2 °F 29.33 in SW 2.3 mph 9.2 mph 73 % 0.00 in 0.0 W/m2 CLR
06:06 42.0 °F 34.3 °F 29.33 in SW 6.7 mph 9.2 mph 74 % 0.00 in 0.0 W/m2 CLR
06:11 42.0 °F 34.3 °F 29.34 in WSW 4.9 mph 13.8 mph 74 % 0.00 in 0.0 W/m2 CLR
06:16 42.0 °F 34.3 °F 29.34 in WSW 1.5 mph 11.5 mph 74 % 0.00 in 0.0 W/m2 CLR
06:21 42.0 °F 34.3 °F 29.34 in SW 4.8 mph 13.0 mph 74 % 0.00 in 0.0 W/m2 CLR
06:26 42.1 °F 34.1 °F 29.34 in SW 3.8 mph 9.2 mph 73 % 0.00 in 0.0 W/m2 CLR
06:31 42.1 °F 34.1 °F 29.34 in WSW 3.3 mph 8.0 mph 73 % 0.00 in 0.0 W/m2 CLR
06:36 42.1 °F 34.1 °F 29.34 in WSW 7.3 mph 15.0 mph 73 % 0.00 in 0.0 W/m2 CLR
06:41 42.1 °F 34.1 °F 29.34 in WSW 6.6 mph 11.5 mph 73 % 0.00 in 0.0 W/m2 CLR
06:46 42.1 °F 34.1 °F 29.35 in WSW 3.7 mph 12.7 mph 73 % 0.00 in 5.0 W/m2 CLR
06:51 42.2 °F 34.2 °F 29.35 in SW 6.3 mph 13.8 mph 73 % 0.00 in 7.0 W/m2 CLR
06:56 42.1 °F 34.1 °F 29.35 in WSW 3.0 mph 12.0 mph 73 % 0.00 in 5.0 W/m2 CLR
07:01 42.1 °F 34.4 °F 29.35 in WSW 12.9 mph 17.3 mph 74 % 0.00 in 7.0 W/m2 CLR
07:06 41.8 °F 34.1 °F 29.36 in WSW 11.2 mph 16.1 mph 74 % 0.00 in 11.0 W/m2 CLR
07:11 41.6 °F 34.3 °F 29.36 in WSW 5.8 mph 15.0 mph 75 % 0.00 in 14.0 W/m2 CLR
07:16 41.4 °F 34.4 °F 29.36 in SSW 10.6 mph 13.8 mph 76 % 0.00 in 14.0 W/m2 CLR
07:21 41.1 °F 34.8 °F 29.36 in WSW 2.7 mph 8.1 mph 78 % 0.00 in 18.0 W/m2 BKN
07:26 40.8 °F 34.8 °F 29.37 in SW 8.1 mph 16.1 mph 79 % 0.00 in 19.0 W/m2 OVC
07:31 40.6 °F 34.9 °F 29.37 in SW 7.2 mph 17.0 mph 80 % 0.00 in 23.0 W/m2 OVC
07:36 40.5 °F 34.8 °F 29.37 in WSW 7.8 mph 12.7 mph 80 % 0.00 in 30.0 W/m2 BKN
07:41 40.3 °F 34.9 °F 29.37 in SW 8.2 mph 16.1 mph 81 % 0.00 in 35.0 W/m2 BKN
07:46 40.2 °F 35.1 °F 29.38 in SSW 6.0 mph 11.5 mph 82 % 0.00 in 37.0 W/m2 BKN
07:51 40.1 °F 35.0 °F 29.38 in SW 6.6 mph 12.7 mph 82 % 0.00 in 33.0 W/m2 OVC
07:56 40.0 °F 35.3 °F 29.38 in SW 11.2 mph 15.0 mph 83 % 0.00 in 32.0 W/m2 OVC
08:01 39.9 °F 35.2 °F 29.38 in WSW 8.5 mph 13.8 mph 83 % 0.00 in 32.0 W/m2 OVC
08:06 39.9 °F 35.2 °F 29.38 in WSW 7.3 mph 12.7 mph 83 % 0.00 in 33.0 W/m2 OVC
08:11 39.8 °F 35.1 °F 29.38 in WSW 5.1 mph 11.5 mph 83 % 0.00 in 44.0 W/m2 OVC
08:16 39.9 °F 35.5 °F 29.38 in SW 7.9 mph 13.8 mph 84 % 0.00 in 53.0 W/m2 OVC
08:21 39.9 °F 35.5 °F 29.38 in SW 9.2 mph 18.4 mph 84 % 0.00 in 51.0 W/m2 OVC
08:26 40.0 °F 35.6 °F 29.38 in SW 3.4 mph 11.5 mph 84 % 0.00 in 42.0 W/m2 OVC
08:31 40.0 °F 35.6 °F 29.38 in West 7.8 mph 11.5 mph 84 % 0.00 in 49.0 W/m2 OVC
08:36 40.0 °F 35.6 °F 29.39 in WSW 2.0 mph 5.8 mph 84 % 0.00 in 69.0 W/m2 OVC
08:41 40.1 °F 35.7 °F 29.39 in SW 6.4 mph 9.2 mph 84 % 0.00 in 90.0 W/m2 BKN
08:46 40.3 °F 35.8 °F 29.39 in WSW 5.5 mph 11.5 mph 84 % 0.00 in 111.0 W/m2 BKN
08:51 40.5 °F 35.7 °F 29.39 in WSW 5.9 mph 13.8 mph 83 % 0.00 in 104.0 W/m2 BKN
08:56 40.6 °F 35.8 °F 29.39 in WSW 7.1 mph 10.4 mph 83 % 0.00 in 107.0 W/m2 BKN
09:01 40.7 °F 35.9 °F 29.39 in WSW 6.9 mph 13.8 mph 83 % 0.00 in 111.0 W/m2 BKN
09:06 40.7 °F 35.9 °F 29.39 in WSW 6.9 mph 13.8 mph 83 % 0.00 in 111.0 W/m2 BKN
09:11 40.9 °F 35.8 °F 29.40 in SW 6.4 mph 9.2 mph 82 % 0.00 in 95.0 W/m2 OVC
09:16 41.1 °F 36.0 °F 29.40 in WSW 4.3 mph 15.0 mph 82 % 0.00 in 121.0 W/m2 BKN
09:21 41.4 °F 36.3 °F 29.40 in West 3.7 mph 11.5 mph 82 % 0.00 in 125.0 W/m2 BKN
09:26 41.4 °F 36.0 °F 29.40 in West 8.0 mph 11.5 mph 81 % 0.00 in 137.0 W/m2 BKN
09:31 41.3 °F 35.9 °F 29.41 in West 11.4 mph 15.0 mph 81 % 0.01 in 98.0 W/m2 RA
09:36 41.1 °F 35.7 °F 29.41 in West 9.1 mph 19.6 mph 81 % 0.01 in 183.0 W/m2 RA
09:39 40.8 °F 35.7 °F 29.41 in West 13.7 mph 19.6 mph 82 % 0.01 in 225.0 W/m2 RA
09:44 40.5 °F 35.4 °F 29.41 in WSW 9.2 mph 16.1 mph 82 % 0.01 in 176.0 W/m2 BKN
09:49 40.4 °F 35.3 °F 29.42 in WNW 11.3 mph 13.0 mph 82 % 0.01 in 153.0 W/m2 BKN
09:54 40.6 °F 35.8 °F 29.42 in West 9.1 mph 15.0 mph 83 % 0.01 in 125.0 W/m2 OVC
09:59 40.5 °F 35.4 °F 29.42 in West 6.8 mph 15.0 mph 82 % 0.01 in 118.0 W/m2 OVC
10:04 40.5 °F 35.4 °F 29.42 in West 4.3 mph 8.1 mph 82 % 0.01 in 114.0 W/m2 OVC
10:09 40.4 °F 35.0 °F 29.42 in West 12.0 mph 18.4 mph 81 % 0.01 in 109.0 W/m2 OVC
10:14 40.4 °F 35.0 °F 29.43 in West 8.6 mph 16.1 mph 81 % 0.01 in 116.0 W/m2 OVC
10:19 40.5 °F 35.1 °F 29.43 in NNW 11.3 mph 20.7 mph 81 % 0.01 in 114.0 W/m2 OVC
10:24 40.3 °F 34.9 °F 29.43 in West 12.0 mph 16.1 mph 81 % 0.01 in 142.0 W/m2 OVC
10:29 40.2 °F 34.8 °F 29.43 in West 10.5 mph 14.0 mph 81 % 0.01 in 185.0 W/m2 BKN
10:34 40.3 °F 34.9 °F 29.44 in West 9.2 mph 12.7 mph 81 % 0.00 in 195.0 W/m2 BKN
10:35 40.3 °F 34.9 °F 29.44 in WNW 10.5 mph 13.8 mph 81 % 0.00 in 188.0 W/m2 BKN
10:40 40.3 °F 34.9 °F 29.44 in West 8.8 mph 15.0 mph 81 % 0.00 in 163.0 W/m2 OVC
10:45 40.2 °F 34.8 °F 29.44 in West 8.7 mph 13.8 mph 81 % 0.00 in 190.0 W/m2 BKN
10:50 40.3 °F 35.2 °F 29.44 in WSW 10.7 mph 16.1 mph 82 % 0.01 in 218.0 W/m2 RA
10:55 40.2 °F 35.4 °F 29.44 in WSW 9.7 mph 15.0 mph 83 % 0.01 in 250.0 W/m2 RA
11:00 40.1 °F 35.7 °F 29.44 in West 10.0 mph 18.4 mph 84 % 0.01 in 316.0 W/m2 BKN
11:05 40.2 °F 35.8 °F 29.45 in West 5.2 mph 8.1 mph 84 % 0.01 in 318.0 W/m2 BKN
11:10 40.5 °F 36.0 °F 29.45 in WSW 3.2 mph 14.0 mph 84 % 0.01 in 390.0 W/m2 SCT
11:15 40.8 °F 36.0 °F 29.45 in West 8.6 mph 11.5 mph 83 % 0.01 in 250.0 W/m2 BKN
11:20 40.9 °F 36.1 °F 29.45 in West 4.4 mph 10.4 mph 83 % 0.01 in 255.0 W/m2 BKN
11:25 41.0 °F 35.9 °F 29.45 in WSW 6.7 mph 15.0 mph 82 % 0.01 in 192.0 W/m2 BKN
11:30 41.0 °F 35.6 °F 29.45 in WSW 10.4 mph 16.1 mph 81 % 0.01 in 137.0 W/m2 OVC
11:35 40.9 °F 35.5 °F 29.45 in WSW 8.9 mph 14.0 mph 81 % 0.01 in 211.0 W/m2 BKN
11:40 40.8 °F 35.4 °F 29.45 in SW 9.2 mph 16.0 mph 81 % 0.01 in 385.0 W/m2 SCT
11:45 41.2 °F 35.8 °F 29.45 in West 9.2 mph 13.8 mph 81 % 0.01 in 401.0 W/m2 SCT
11:50 41.4 °F 36.0 °F 29.46 in West 14.5 mph 23.0 mph 81 % 0.00 in 341.0 W/m2 BKN
11:55 41.6 °F 35.9 °F 29.46 in West 10.8 mph 16.1 mph 80 % 0.00 in 318.0 W/m2 BKN
12:00 41.7 °F 36.0 °F 29.46 in West 12.3 mph 21.9 mph 80 % 0.00 in 276.0 W/m2 BKN
12:05 41.4 °F 35.7 °F 29.46 in WSW 8.6 mph 17.3 mph 80 % 0.01 in 176.0 W/m2 RA
12:10 40.9 °F 35.2 °F 29.46 in WNW 9.4 mph 19.6 mph 80 % 0.01 in 207.0 W/m2 RA
12:15 40.8 °F 35.4 °F 29.46 in West 9.0 mph 12.7 mph 81 % 0.01 in 318.0 W/m2 BKN
12:20 42.0 °F 36.9 °F 29.46 in WNW 3.0 mph 9.2 mph 82 % 0.01 in 849.0 W/m2 CLR
12:25 42.6 °F 37.2 °F 29.45 in West 4.5 mph 9.2 mph 81 % 0.01 in 320.0 W/m2 BKN
12:30 43.0 °F 37.3 °F 29.45 in West 11.1 mph 16.1 mph 80 % 0.01 in 589.0 W/m2 FEW
12:35 44.1 °F 37.7 °F 29.45 in WNW 5.5 mph 10.4 mph 78 % 0.01 in 211.0 W/m2 OVC
12:40 44.3 °F 36.5 °F 29.45 in WNW 7.1 mph 10.4 mph 74 % 0.01 in 631.0 W/m2 FEW
12:45 44.5 °F 36.0 °F 29.45 in WNW 10.7 mph 19.6 mph 72 % 0.01 in 949.0 W/m2 CLR
12:50 45.4 °F 36.5 °F 29.45 in WNW 7.9 mph 15.0 mph 71 % 0.01 in 954.0 W/m2 CLR
12:55 45.7 °F 35.7 °F 29.45 in WSW 17.5 mph 24.2 mph 68 % 0.01 in 914.0 W/m2 CLR
13:00 45.4 °F 35.1 °F 29.45 in West 15.1 mph 19.6 mph 67 % 0.01 in 403.0 W/m2 SCT
13:05 45.8 °F 35.5 °F 29.45 in West 7.3 mph 15.0 mph 67 % 0.00 in 490.0 W/m2 SCT
13:10 45.6 °F 35.3 °F 29.46 in WNW 9.1 mph 18.4 mph 67 % 0.00 in 429.0 W/m2 SCT
13:15 45.4 °F 36.2 °F 29.46 in WSW 7.3 mph 18.0 mph 70 % 0.00 in 429.0 W/m2 SCT
13:20 45.2 °F 35.6 °F 29.46 in West 15.5 mph 20.7 mph 69 % 0.00 in 854.0 W/m2 CLR
13:25 45.0 °F 35.1 °F 29.46 in West 12.5 mph 19.0 mph 68 % 0.00 in 469.0 W/m2 SCT
13:30 45.4 °F 35.1 °F 29.46 in West 8.3 mph 12.7 mph 67 % 0.00 in 599.0 W/m2 FEW
13:35 45.9 °F 34.8 °F 29.46 in WNW 9.6 mph 13.8 mph 65 % 0.00 in 408.0 W/m2 SCT
13:40 45.6 °F 34.1 °F 29.46 in WSW 12.8 mph 19.6 mph 64 % 0.00 in 200.0 W/m2 BKN
13:45 45.2 °F 34.1 °F 29.47 in West 16.8 mph 25.3 mph 65 % 0.00 in 306.0 W/m2 BKN
13:50 45.5 °F 35.2 °F 29.47 in NW 13.1 mph 21.9 mph 67 % 0.00 in 1027.0 W/m2 CLR
13:55 46.1 °F 35.4 °F 29.46 in NW 9.4 mph 15.0 mph 66 % 0.00 in 1069.0 W/m2 CLR
14:00 47.1 °F 34.7 °F 29.46 in West 10.4 mph 13.8 mph 62 % 0.00 in 1116.0 W/m2 CLR
14:05 47.1 °F 33.9 °F 29.46 in West 11.2 mph 19.6 mph 60 % 0.00 in 366.0 W/m2 SCT
14:10 46.5 °F 34.2 °F 29.48 in West 16.6 mph 24.0 mph 62 % 0.00 in 199.0 W/m2 OVC
14:15 44.6 °F 34.3 °F 29.48 in West 12.6 mph 20.7 mph 67 % 0.00 in 355.0 W/m2 BKN
14:20 44.1 °F 34.9 °F 29.48 in WNW 12.5 mph 18.4 mph 70 % 0.00 in 452.0 W/m2 SCT
14:25 45.0 °F 35.1 °F 29.48 in WNW 13.9 mph 19.6 mph 68 % 0.00 in 737.0 W/m2 FEW
14:30 45.6 °F 34.5 °F 29.48 in NW 14.3 mph 18.4 mph 65 % 0.00 in 628.0 W/m2 CLR
14:35 45.6 °F 34.1 °F 29.48 in West 15.9 mph 21.9 mph 64 % 0.00 in 559.0 W/m2 CLR
14:40 46.2 °F 35.1 °F 29.48 in WNW 15.3 mph 18.4 mph 65 % 0.00 in 547.0 W/m2 FEW
14:45 46.2 °F 33.5 °F 29.48 in West 14.1 mph 23.0 mph 61 % 0.00 in 478.0 W/m2 SCT
14:50 46.3 °F 33.6 °F 29.48 in West 14.8 mph 21.9 mph 61 % 0.00 in 462.0 W/m2 FEW
14:55 46.2 °F 33.9 °F 29.49 in NW 13.4 mph 18.4 mph 62 % 0.00 in 401.0 W/m2 SCT
15:00 46.0 °F 33.3 °F 29.49 in WSW 14.7 mph 25.3 mph 61 % 0.00 in 332.0 W/m2 SCT
15:05 45.4 °F 33.5 °F 29.49 in West 11.3 mph 16.1 mph 63 % 0.00 in 339.0 W/m2 SCT
15:10 45.4 °F 33.1 °F 29.50 in West 11.6 mph 15.0 mph 62 % 0.00 in 397.0 W/m2 SCT
15:15 45.6 °F 32.9 °F 29.50 in West 10.8 mph 17.0 mph 61 % 0.00 in 295.0 W/m2 SCT
15:20 45.4 °F 32.7 °F 29.50 in West 8.1 mph 13.8 mph 61 % 0.00 in 309.0 W/m2 SCT
15:25 45.6 °F 33.3 °F 29.50 in WSW 13.8 mph 15.0 mph 62 % 0.00 in 195.0 W/m2 BKN
15:30 45.1 °F 32.4 °F 29.50 in WSW 10.1 mph 18.4 mph 61 % 0.00 in 148.0 W/m2 OVC
15:35 44.6 °F 32.4 °F 29.51 in NW 11.8 mph 19.6 mph 62 % 0.00 in 146.0 W/m2 OVC
15:40 44.5 °F 33.1 °F 29.51 in WNW 15.8 mph 16.1 mph 64 % 0.00 in 160.0 W/m2 OVC
15:45 44.3 °F 32.9 °F 29.51 in West 14.2 mph 24.2 mph 64 % 0.00 in 237.0 W/m2 BKN
15:50 44.2 °F 33.6 °F 29.51 in West 11.8 mph 15.0 mph 66 % 0.00 in 178.0 W/m2 BKN
15:55 44.0 °F 33.0 °F 29.52 in WNW 11.2 mph 20.7 mph 65 % 0.00 in 107.0 W/m2 OVC
16:00 43.7 °F 32.7 °F 29.52 in WNW 11.0 mph 19.6 mph 65 % 0.00 in 113.0 W/m2 OVC
16:05 43.6 °F 33.0 °F 29.53 in West 13.5 mph 18.4 mph 66 % 0.00 in 158.0 W/m2 OVC
16:11 43.2 °F 33.3 °F 29.54 in WNW 13.3 mph 21.9 mph 68 % 0.00 in 197.0 W/m2 BKN
16:16 42.6 °F 33.1 °F 29.54 in WNW 15.9 mph 26.5 mph 69 % 0.00 in 172.0 W/m2 BKN
16:21 41.7 °F 33.3 °F 29.54 in WNW 9.2 mph 24.2 mph 72 % 0.00 in 141.0 W/m2 BKN
16:26 41.3 °F 33.3 °F 29.55 in West 8.2 mph 11.5 mph 73 % 0.00 in 257.0 W/m2 BKN
16:31 41.7 °F 34.0 °F 29.55 in WNW 8.4 mph 13.8 mph 74 % 0.00 in 262.0 W/m2 SCT
16:36 42.0 °F 34.0 °F 29.55 in WNW 7.5 mph 15.0 mph 73 % 0.00 in 218.0 W/m2 BKN
16:41 42.2 °F 33.5 °F 29.55 in WNW 11.4 mph 18.4 mph 71 % 0.00 in 221.0 W/m2 BKN
16:46 42.7 °F 33.9 °F 29.55 in WNW 8.9 mph 12.7 mph 71 % 0.00 in 139.0 W/m2 BKN
16:51 42.9 °F 33.8 °F 29.56 in NW 14.6 mph 16.1 mph 70 % 0.00 in 97.0 W/m2 OVC
16:56 41.8 °F 33.4 °F 29.56 in West 9.4 mph 17.3 mph 72 % 0.00 in 227.0 W/m2 SCT
17:01 41.7 °F 34.4 °F 29.56 in West 8.6 mph 15.0 mph 75 % 0.00 in 283.0 W/m2 FEW
17:06 41.8 °F 34.5 °F 29.57 in NNW 12.2 mph 17.3 mph 75 % 0.00 in 267.0 W/m2 FEW
17:11 42.0 °F 34.6 °F 29.57 in WSW 6.6 mph 12.7 mph 75 % 0.00 in 202.0 W/m2 SCT
17:16 42.1 °F 34.1 °F 29.57 in West 13.0 mph 16.1 mph 73 % 0.00 in 116.0 W/m2 BKN
17:21 41.9 °F 33.5 °F 29.58 in West 10.0 mph 15.0 mph 72 % 0.00 in 90.0 W/m2 OVC
17:26 41.9 °F 32.8 °F 29.58 in WSW 15.0 mph 19.6 mph 70 % 0.00 in 72.0 W/m2 OVC
17:31 41.6 °F 32.5 °F 29.58 in WNW 12.6 mph 17.3 mph 70 % 0.00 in 84.0 W/m2 OVC
17:36 41.7 °F 32.6 °F 29.58 in West 10.3 mph 18.4 mph 70 % 0.00 in 128.0 W/m2 BKN
17:41 41.8 °F 32.4 °F 29.59 in West 12.3 mph 19.6 mph 69 % 0.00 in 118.0 W/m2 BKN
17:46 42.2 °F 32.4 °F 29.59 in West 8.4 mph 14.0 mph 68 % 0.00 in 116.0 W/m2 BKN
17:51 42.2 °F 31.3 °F 29.59 in West 14.7 mph 19.6 mph 65 % 0.00 in 118.0 W/m2 BKN
17:56 42.3 °F 31.0 °F 29.59 in NW 12.4 mph 23.0 mph 64 % 0.00 in 100.0 W/m2 BKN
18:01 42.5 °F 31.2 °F 29.59 in WNW 9.6 mph 15.0 mph 64 % 0.00 in 100.0 W/m2 BKN
18:06 42.5 °F 30.8 °F 29.60 in West 13.4 mph 18.4 mph 63 % 0.00 in 88.0 W/m2 BKN
18:11 42.4 °F 30.7 °F 29.60 in WNW 12.6 mph 19.0 mph 63 % 0.00 in 76.0 W/m2 BKN
18:16 42.2 °F 30.9 °F 29.61 in WNW 11.6 mph 15.0 mph 64 % 0.00 in 58.0 W/m2 BKN
18:21 42.2 °F 30.5 °F 29.61 in West 13.3 mph 18.4 mph 63 % 0.00 in 63.0 W/m2 BKN
18:26 42.1 °F 29.6 °F 29.61 in West 12.4 mph 21.9 mph 61 % 0.00 in 53.0 W/m2 BKN
18:31 42.0 °F 29.5 °F 29.62 in NW 8.0 mph 17.3 mph 61 % 0.00 in 56.0 W/m2 BKN
18:36 42.0 °F 29.5 °F 29.62 in NW 13.5 mph 19.6 mph 61 % 0.00 in 58.0 W/m2 BKN
18:41 41.9 °F 29.0 °F 29.62 in NW 9.8 mph 16.0 mph 60 % 0.00 in 49.0 W/m2 BKN
18:46 41.8 °F 28.9 °F 29.63 in WNW 14.8 mph 19.6 mph 60 % 0.00 in 37.0 W/m2 BKN
18:51 41.6 °F 28.3 °F 29.63 in West 14.7 mph 24.2 mph 59 % 0.00 in 40.0 W/m2 BKN
18:56 41.4 °F 28.1 °F 29.64 in West 11.9 mph 19.6 mph 59 % 0.00 in 28.0 W/m2 BKN
19:01 41.3 °F 28.0 °F 29.64 in WNW 14.4 mph 23.0 mph 59 % 0.00 in 14.0 W/m2 OVC
19:06 41.1 °F 28.3 °F 29.64 in West 10.9 mph 18.4 mph 60 % 0.00 in 14.0 W/m2 OVC
19:11 40.9 °F 28.5 °F 29.64 in NW 13.3 mph 27.6 mph 61 % 0.00 in 7.0 W/m2 OVC
19:16 40.8 °F 28.4 °F 29.65 in WNW 10.8 mph 20.7 mph 61 % 0.00 in 0.0 W/m2 OVC
19:21 40.5 °F 28.9 °F 29.65 in WNW 9.9 mph 14.0 mph 63 % 0.00 in 7.0 W/m2 BKN
19:26 40.5 °F 28.5 °F 29.66 in NW 11.6 mph 20.7 mph 62 % 0.00 in 0.0 W/m2 OVC
19:31 40.4 °F 28.4 °F 29.66 in WNW 8.9 mph 19.0 mph 62 % 0.00 in 0.0 W/m2 CLR
19:36 40.4 °F 28.4 °F 29.66 in NW 8.7 mph 15.0 mph 62 % 0.00 in 0.0 W/m2 CLR
19:41 40.4 °F 28.0 °F 29.66 in West 10.8 mph 24.2 mph 61 % 0.00 in 0.0 W/m2 CLR
19:46 40.3 °F 27.9 °F 29.66 in NW 9.6 mph 19.0 mph 61 % 0.00 in 0.0 W/m2 CLR
19:51 40.3 °F 27.9 °F 29.67 in WNW 12.5 mph 20.7 mph 61 % 0.00 in 0.0 W/m2 CLR
19:56 40.2 °F 27.8 °F 29.67 in WNW 9.9 mph 18.4 mph 61 % 0.00 in 0.0 W/m2 CLR
20:01 40.2 °F 27.8 °F 29.67 in WNW 3.7 mph 6.9 mph 61 % 0.00 in 0.0 W/m2 CLR
20:06 40.2 °F 27.8 °F 29.67 in WNW 5.7 mph 12.7 mph 61 % 0.00 in 0.0 W/m2 CLR
20:11 40.1 °F 28.5 °F 29.68 in West 13.1 mph 19.6 mph 63 % 0.00 in 0.0 W/m2 CLR
20:16 40.0 °F 28.4 °F 29.68 in WNW 11.7 mph 15.0 mph 63 % 0.00 in 0.0 W/m2 CLR
20:21 39.8 °F 28.2 °F 29.68 in NW 12.1 mph 19.0 mph 63 % 0.00 in 0.0 W/m2 CLR
20:26 39.7 °F 28.1 °F 29.69 in West 12.6 mph 20.7 mph 63 % 0.00 in 0.0 W/m2 CLR
20:31 39.7 °F 28.1 °F 29.69 in NW 5.2 mph 13.8 mph 63 % 0.00 in 0.0 W/m2 CLR
20:36 39.7 °F 28.5 °F 29.70 in NW 9.7 mph 12.7 mph 64 % 0.00 in 0.0 W/m2 CLR
20:41 39.6 °F 28.4 °F 29.70 in WNW 12.1 mph 17.0 mph 64 % 0.00 in 0.0 W/m2 CLR
20:46 39.6 °F 28.4 °F 29.71 in WNW 8.1 mph 15.0 mph 64 % 0.00 in 0.0 W/m2 CLR
20:51 39.5 °F 28.7 °F 29.71 in NW 7.7 mph 12.7 mph 65 % 0.00 in 0.0 W/m2 CLR
20:56 39.3 °F 28.9 °F 29.72 in West 16.5 mph 25.3 mph 66 % 0.00 in 0.0 W/m2 CLR
21:01 39.2 °F 28.8 °F 29.73 in NW 13.0 mph 17.3 mph 66 % 0.00 in 0.0 W/m2 CLR
21:06 39.1 °F 28.7 °F 29.73 in NW 14.0 mph 19.6 mph 66 % 0.00 in 0.0 W/m2 CLR
21:11 39.1 °F 28.7 °F 29.73 in WNW 10.4 mph 17.3 mph 66 % 0.00 in 0.0 W/m2 CLR
21:16 39.0 °F 28.6 °F 29.73 in North 11.5 mph 19.6 mph 66 % 0.00 in 0.0 W/m2 CLR
21:21 39.0 °F 28.6 °F 29.74 in West 9.5 mph 16.1 mph 66 % 0.00 in 0.0 W/m2 CLR
21:26 39.1 °F 28.7 °F 29.74 in WNW 12.9 mph 19.6 mph 66 % 0.00 in 0.0 W/m2 CLR
21:31 39.0 °F 28.2 °F 29.74 in West 16.5 mph 19.6 mph 65 % 0.00 in 0.0 W/m2 CLR
21:36 39.0 °F 28.2 °F 29.75 in WNW 12.3 mph 18.4 mph 65 % 0.00 in 0.0 W/m2 CLR
21:41 38.9 °F 28.1 °F 29.75 in WNW 9.6 mph 23.0 mph 65 % 0.00 in 0.0 W/m2 CLR
21:46 38.9 °F 27.8 °F 29.75 in WNW 13.4 mph 20.7 mph 64 % 0.00 in 0.0 W/m2 CLR
21:51 38.8 °F 28.0 °F 29.76 in WNW 13.2 mph 19.6 mph 65 % 0.00 in 0.0 W/m2 CLR
21:56 38.7 °F 27.9 °F 29.76 in NW 14.3 mph 26.5 mph 65 % 0.00 in 0.0 W/m2 CLR
22:01 38.7 °F 27.9 °F 29.76 in WNW 14.1 mph 18.4 mph 65 % 0.00 in 0.0 W/m2 CLR
22:06 38.7 °F 27.9 °F 29.76 in West 8.7 mph 16.1 mph 65 % 0.00 in 0.0 W/m2 CLR
22:11 38.6 °F 27.8 °F 29.77 in NW 11.8 mph 21.9 mph 65 % 0.00 in 0.0 W/m2 CLR
22:16 38.6 °F 27.8 °F 29.77 in WNW 11.5 mph 17.3 mph 65 % 0.00 in 0.0 W/m2 CLR
22:21 38.6 °F 27.8 °F 29.77 in WNW 9.6 mph 19.6 mph 65 % 0.00 in 0.0 W/m2 CLR
22:26 38.5 °F 27.7 °F 29.77 in West 9.7 mph 17.3 mph 65 % 0.00 in 0.0 W/m2 CLR
22:31 38.6 °F 27.8 °F 29.77 in NW 15.9 mph 19.6 mph 65 % 0.00 in 0.0 W/m2 CLR
22:37 38.6 °F 27.8 °F 29.77 in WNW 12.5 mph 15.0 mph 65 % 0.00 in 0.0 W/m2 CLR
22:42 38.5 °F 27.7 °F 29.77 in NW 15.8 mph 23.0 mph 65 % 0.00 in 0.0 W/m2 CLR
22:47 38.5 °F 27.7 °F 29.77 in NNW 13.8 mph 19.6 mph 65 % 0.00 in 0.0 W/m2 CLR
22:52 38.5 °F 27.7 °F 29.77 in WNW 8.4 mph 11.5 mph 65 % 0.00 in 0.0 W/m2 CLR
22:57 38.5 °F 27.7 °F 29.77 in WNW 8.4 mph 15.0 mph 65 % 0.00 in 0.0 W/m2 CLR
23:02 38.5 °F 27.7 °F 29.77 in NW 6.1 mph 13.8 mph 65 % 0.00 in 0.0 W/m2 CLR
23:07 38.5 °F 27.7 °F 29.78 in West 12.4 mph 20.7 mph 65 % 0.00 in 0.0 W/m2 CLR
23:12 38.6 °F 27.8 °F 29.78 in West 6.3 mph 12.7 mph 65 % 0.00 in 0.0 W/m2 CLR
23:17 38.5 °F 27.7 °F 29.78 in NNW 7.8 mph 16.1 mph 65 % 0.00 in 0.0 W/m2 CLR
23:22 38.6 °F 27.8 °F 29.78 in West 7.1 mph 10.4 mph 65 % 0.00 in 0.0 W/m2 CLR
23:27 38.6 °F 27.8 °F 29.78 in West 4.5 mph 9.2 mph 65 % 0.00 in 0.0 W/m2 CLR
23:32 38.6 °F 27.8 °F 29.78 in NW 3.0 mph 9.2 mph 65 % 0.00 in 0.0 W/m2 CLR
23:37 38.6 °F 27.8 °F 29.78 in NW 4.8 mph 10.4 mph 65 % 0.00 in 0.0 W/m2 CLR
23:42 38.6 °F 27.8 °F 29.78 in West 12.3 mph 21.9 mph 65 % 0.00 in 0.0 W/m2 CLR
23:47 38.6 °F 27.5 °F 29.78 in WNW 11.8 mph 17.3 mph 64 % 0.00 in 0.0 W/m2 CLR
23:52 38.7 °F 27.6 °F 29.78 in WNW 7.8 mph 15.0 mph 64 % 0.00 in 0.0 W/m2 CLR
23:57 38.7 °F 27.6 °F 29.79 in WNW 8.0 mph 11.5 mph 64 % 0.00 in 0.0 W/m2 CLR
Air Products Campus Weather
Compliments of Weather Underground - 3.5 mb